• In Hungary
  • List of Countries
  • For 7 days
  • Water Temperature
  • Satellite Maps
  • Weather Map
  • News
  • Weather Widgets
  • user-avatar
    Login

    Hourly Weather Alkadar

    Today, 24 September, Monday

    Time Temperature Precipitation Wind Pressure Humidity
    00:00 +17°C° 0 mm 2 mps 707 mmHg 74%
    01:00 +17°C° 0 mm 2 mps 707 mmHg 72%
    02:00 +17°C° 0 mm 2 mps 707 mmHg 70%
    03:00 +17°C° 0 mm 2 mps 707 mmHg 65%
    04:00 +17°C° 0 mm 2 mps 707 mmHg 63%
    05:00 +17°C° 0 mm 2 mps 707 mmHg 61%
    06:00 +17°C° 0 mm 2 mps 707 mmHg 59%
    07:00 +19°C° 0 mm 2 mps 708 mmHg 55%
    08:00 +21°C° 0 mm 2 mps 708 mmHg 51%
    09:00 +24°C° 0 mm 2 mps 709 mmHg 46%
    10:00 +25°C° 0 mm 2 mps 709 mmHg 45%
    11:00 +25°C° 0 mm 3 mps 709 mmHg 45%
    12:00 +26°C° 0 mm 3 mps 709 mmHg 44%
    13:00 +26°C° 0 mm 3 mps 709 mmHg 46%
    14:00 +25°C° 0 mm 3 mps 709 mmHg 48%
    15:00 +25°C° 0 mm 3 mps 709 mmHg 49%
    16:00 +23°C° 0 mm 2 mps 709 mmHg 57%
    17:00 +21°C° 0 mm 2 mps 709 mmHg 65%
    18:00 +20°C° 0 mm 1 mps 708 mmHg 73%
    19:00 +20°C° 0 mm 1 mps 708 mmHg 73%
    20:00 +19°C° 0 mm 1 mps 708 mmHg 73%
    21:00 +19°C° 0 mm 1 mps 708 mmHg 73%
    22:00 +18°C° 0 mm 2 mps 708 mmHg 72%
    23:00 +18°C° 0 mm 2 mps 708 mmHg 70%

    Tomorrow, 25 September, Tuesday

    Time Temperature Precipitation Wind Pressure Humidity
    00:00 +18°C° 0 mm 2 mps 708 mmHg 69%
    01:00 +18°C° 0 mm 2 mps 707 mmHg 68%
    02:00 +18°C° 0 mm 2 mps 707 mmHg 66%
    03:00 +18°C° 0 mm 3 mps 707 mmHg 65%
    04:00 +18°C° 0 mm 3 mps 706 mmHg 64%
    05:00 +18°C° 0 mm 3 mps 706 mmHg 63%
    06:00 +18°C° 0 mm 3 mps 706 mmHg 62%
    07:00 +20°C° 0 mm 3 mps 706 mmHg 55%
    08:00 +24°C° 0 mm 2 mps 706 mmHg 48%
    09:00 +27°C° 0 mm 2 mps 706 mmHg 41%
    10:00 +28°C° 0 mm 3 mps 706 mmHg 40%
    11:00 +29°C° 0 mm 3 mps 706 mmHg 38%
    12:00 +30°C° 0 mm 3 mps 705 mmHg 36%
    13:00 +30°C° 0 mm 3 mps 705 mmHg 37%
    14:00 +30°C° 0 mm 3 mps 704 mmHg 38%
    15:00 +30°C° 0 mm 3 mps 704 mmHg 38%
    16:00 +27°C° 0 mm 2 mps 704 mmHg 47%
    17:00 +25°C° 0 mm 2 mps 704 mmHg 56%
    18:00 +22°C° 0 mm 1 mps 704 mmHg 64%
    19:00 +21°C° 0 mm 2 mps 704 mmHg 64%
    20:00 +21°C° 0 mm 2 mps 704 mmHg 63%
    21:00 +21°C° 0 mm 2 mps 705 mmHg 62%
    22:00 +20°C° 0 mm 2 mps 705 mmHg 63%
    23:00 +20°C° 0 mm 2 mps 705 mmHg 63%

    Day after tomorrow, 26 September, Wednesday

    Time Temperature Precipitation Wind Pressure Humidity
    00:00 +20°C° 0 mm 2 mps 705 mmHg 64%
    01:00 +19°C° 0 mm 2 mps 705 mmHg 67%
    02:00 +19°C° 0 mm 2 mps 705 mmHg 70%
    03:00 +19°C° 0 mm 2 mps 705 mmHg 73%
    04:00 +18°C° 0 mm 3 mps 706 mmHg 78%
    05:00 +18°C° 0 mm 3 mps 706 mmHg 84%
    06:00 +17°C° 0 mm 3 mps 707 mmHg 89%
    07:00 +18°C° 0 mm 4 mps 707 mmHg 83%
    08:00 +19°C° 0 mm 4 mps 708 mmHg 77%
    09:00 +20°C° 0 mm 5 mps 708 mmHg 71%
    10:00 +20°C° 0 mm 5 mps 709 mmHg 72%
    11:00 +19°C° 0 mm 5 mps 709 mmHg 73%
    12:00 +17°C° 0 mm 5 mps 709 mmHg 74%
    13:00 +17°C° 0 mm 5 mps 709 mmHg 74%
    14:00 +17°C° 0 mm 5 mps 709 mmHg 74%
    15:00 +17°C° 0 mm 5 mps 709 mmHg 74%
    16:00 +17°C° 0 mm 4 mps 709 mmHg 78%
    17:00 +15°C° 0 mm 4 mps 710 mmHg 82%
    18:00 +14°C° 0 mm 4 mps 710 mmHg 86%
    19:00 +13°C° 0 mm 3 mps 710 mmHg 86%
    20:00 +13°C° 0 mm 3 mps 711 mmHg 86%
    21:00 +14°C° 0 mm 2 mps 711 mmHg 86%
    22:00 +14°C° 0 mm 2 mps 711 mmHg 86%
    23:00 +13°C° 0 mm 2 mps 711 mmHg 86%

    27 September, Thursday

    Time Temperature Precipitation Wind Pressure Humidity
    00:00 +13°C° 0 mm 2 mps 711 mmHg 86%
    01:00 +13°C° 0 mm 2 mps 711 mmHg 86%
    02:00 +13°C° 0 mm 2 mps 711 mmHg 86%
    03:00 +13°C° 0 mm 2 mps 711 mmHg 86%
    04:00 +13°C° 0 mm 2 mps 711 mmHg 86%
    05:00 +13°C° 0 mm 2 mps 711 mmHg 86%
    06:00 +13°C° 0 mm 2 mps 711 mmHg 86%
    07:00 +13°C° 0 mm 3 mps 712 mmHg 80%
    08:00 +14°C° 0 mm 3 mps 712 mmHg 73%
    09:00 +17°C° 0 mm 4 mps 712 mmHg 67%
    10:00 +17°C° 0 mm 4 mps 712 mmHg 65%
    11:00 +18°C° 0 mm 4 mps 712 mmHg 63%
    12:00 +19°C° 0 mm 4 mps 712 mmHg 61%
    13:00 +18°C° 0 mm 4 mps 712 mmHg 62%
    14:00 +18°C° 0 mm 4 mps 712 mmHg 63%
    15:00 +18°C° 0 mm 4 mps 711 mmHg 64%
    16:00 +17°C° 0 mm 3 mps 711 mmHg 71%
    17:00 +15°C° 0 mm 2 mps 711 mmHg 77%
    18:00 +14°C° 0 mm 1 mps 711 mmHg 84%
    19:00 +14°C° 0 mm 1 mps 711 mmHg 84%
    20:00 +13°C° 0 mm 1 mps 712 mmHg 84%
    21:00 +13°C° 0 mm 1 mps 712 mmHg 84%
    22:00 +13°C° 0 mm 1 mps 712 mmHg 83%
    23:00 +13°C° 0 mm 1 mps 711 mmHg 82%

    28 September, Friday

    Time Temperature Precipitation Wind Pressure Humidity
    00:00 +13°C° 0 mm 1 mps 711 mmHg 81%
    01:00 +13°C° 0 mm 1 mps 711 mmHg 79%
    02:00 +13°C° 0 mm 1 mps 711 mmHg 77%
    03:00 +13°C° 0 mm 1 mps 711 mmHg 76%
    04:00 +13°C° 0 mm 1 mps 711 mmHg 74%
    05:00 +13°C° 0 mm 1 mps 711 mmHg 73%
    06:00 +13°C° 0 mm 1 mps 711 mmHg 72%
    07:00 +15°C° 0 mm 1 mps 711 mmHg 66%
    08:00 +17°C° 0 mm 2 mps 712 mmHg 60%
    09:00 +19°C° 0 mm 2 mps 712 mmHg 53%
    10:00 +20°C° 0 mm 3 mps 712 mmHg 53%
    11:00 +21°C° 0 mm 3 mps 712 mmHg 52%
    12:00 +22°C° 0 mm 4 mps 712 mmHg 52%
    13:00 +22°C° 0 mm 4 mps 712 mmHg 55%
    14:00 +21°C° 0 mm 4 mps 711 mmHg 57%
    15:00 +21°C° 0 mm 4 mps 711 mmHg 60%
    16:00 +19°C° 0 mm 3 mps 711 mmHg 69%
    17:00 +17°C° 0 mm 3 mps 711 mmHg 77%
    18:00 +16°C° 0 mm 2 mps 711 mmHg 86%
    19:00 +16°C° 0 mm 2 mps 711 mmHg 85%
    20:00 +15°C° 0 mm 2 mps 711 mmHg 84%
    21:00 +15°C° 0 mm 2 mps 711 mmHg 82%
    22:00 +15°C° 0 mm 2 mps 711 mmHg 81%
    23:00 +15°C° 0 mm 2 mps 710 mmHg 80%

    29 September, Saturday

    Time Temperature Precipitation Wind Pressure Humidity
    00:00 +15°C° 0 mm 2 mps 710 mmHg 79%
    01:00 +15°C° 0 mm 2 mps 710 mmHg 77%
    02:00 +15°C° 0 mm 2 mps 710 mmHg 76%
    03:00 +15°C° 0 mm 2 mps 709 mmHg 75%
    04:00 +15°C° 0 mm 2 mps 709 mmHg 74%
    05:00 +15°C° 0 mm 2 mps 709 mmHg 72%
    06:00 +15°C° 0 mm 2 mps 709 mmHg 71%
    07:00 +17°C° 0 mm 2 mps 709 mmHg 64%
    08:00 +19°C° 0 mm 2 mps 709 mmHg 57%
    09:00 +23°C° 0 mm 2 mps 709 mmHg 50%
    10:00 +24°C° 0 mm 3 mps 709 mmHg 49%
    11:00 +25°C° 0 mm 3 mps 708 mmHg 47%
    12:00 +26°C° 0 mm 3 mps 708 mmHg 46%
    13:00 +26°C° 0 mm 3 mps 708 mmHg 47%
    14:00 +26°C° 0 mm 3 mps 707 mmHg 48%
    15:00 +26°C° 0 mm 3 mps 707 mmHg 49%
    16:00 +24°C° 0 mm 2 mps 706 mmHg 58%
    17:00 +21°C° 0 mm 2 mps 706 mmHg 66%
    18:00 +20°C° 0 mm 1 mps 706 mmHg 74%
    19:00 +20°C° 0 mm 1 mps 706 mmHg 70%
    20:00 +19°C° 0 mm 2 mps 706 mmHg 65%
    21:00 +19°C° 0 mm 2 mps 706 mmHg 60%
    22:00 +19°C° 0 mm 2 mps 706 mmHg 56%
    23:00 +19°C° 0 mm 2 mps 706 mmHg 52%
    Show more